Date String (YYYY-MM-DD hh:mm:ss) UTC,Instrument flags,absolute air pressure of the measurement (hPa),sample flow rate (lpm),inlet stack bypass flow (lpm),air temperature of the measurement (°C),ambient temperature measured by the external sensor (°C),aerosol sample conditioner tube jacket temperature (°C),OPC LED temperature (°C),internal box temperature (°C),relative humidity of the measurement (%),span deviation,mass concentration of particles derived from Lorenz-Mie calculation of OPC scattering (μg/m³),mass concentration of particles derived from Lorenz-Mie calculation of OPC scattering (μg/m³),mass concentration of particles derived from Lorenz-Mie calculation of OPC scattering (μg/m³)
DateTimeUTC,F1_M11,P_M11,Q1_M11,Q2_M11,T1_M11,T2_M11,T3_M11,T4_M11,T5_M11,U1_M11,ZSPAN_M11,X0_M11,X2_M11,X1_M11
2023-09-23 07:00:00,SystemResetWarning,0829.0,5.01,000.00,028.5,027.0,000.0,036.9,030.1,24.1,0000.0,0016.92,0006.02,0004.68
2023-09-23 07:01:00,SystemResetWarning,0829.0,5.00,000.00,028.5,027.0,000.0,036.9,030.1,24.1,0000.0,0016.21,0006.05,0004.68
2023-09-23 07:02:00,SystemResetWarning,0828.9,5.01,000.00,028.5,027.1,000.0,036.9,030.2,24.4,-000.9,0017.18,0006.10,0004.68
2023-09-23 07:03:00,SystemResetWarning,0829.0,5.00,000.00,028.5,027.1,000.0,036.9,030.1,24.8,-002.5,0017.05,0006.14,0004.69
2023-09-23 07:04:00,SystemResetWarning,0829.0,5.00,000.00,028.5,027.1,000.0,036.9,030.2,25.1,-002.2,0017.30,0006.12,0004.69
2023-09-23 07:05:00,SystemResetWarning,0829.0,4.99,000.00,028.5,027.2,000.0,036.9,030.2,25.1,-002.5,0017.44,0006.01,0004.67
2023-09-23 07:06:00,SystemResetWarning,0829.0,5.00,000.00,028.6,027.2,000.0,036.9,030.2,25.2,-002.9,0017.14,0005.92,0004.67
2023-09-23 07:07:00,SystemResetWarning,0829.0,5.02,000.00,028.6,027.2,000.0,036.9,030.2,25.3,-001.7,0016.71,0005.89,0004.66
2023-09-23 07:08:00,SystemResetWarning,0829.0,5.00,000.00,028.6,027.2,000.0,036.9,030.3,25.3,-001.8,0016.73,0005.91,0004.65
2023-09-23 07:09:00,SystemResetWarning,0829.1,4.98,000.00,028.6,027.3,000.0,036.9,030.3,25.1,0000.0,0016.13,0005.93,0004.65
2023-09-23 07:10:00,SystemResetWarning,0829.1,5.00,000.00,028.6,027.3,000.0,036.9,030.3,24.8,-001.0,0016.06,0005.95,0004.66
2023-09-23 07:11:00,SystemResetWarning,0829.1,5.00,000.00,028.7,027.3,000.0,036.9,030.3,24.5,0000.0,0016.96,0005.98,0004.67
2023-09-23 07:12:00,SystemResetWarning,0829.1,5.00,000.00,028.7,027.4,000.0,036.9,030.4,24.0,0000.0,0018.64,0006.02,0004.70
2023-09-23 07:13:00,SystemResetWarning,0829.2,5.01,000.00,028.7,027.4,000.0,036.9,030.4,23.4,0000.0,0018.60,0006.07,0004.71
2023-09-23 07:14:00,SystemResetWarning,0829.3,5.00,000.00,028.7,027.4,000.0,037.0,030.4,23.0,-000.0,0018.69,0006.07,0004.73
2023-09-23 07:15:00,SystemResetWarning,0829.3,5.00,000.00,028.7,027.4,000.0,037.0,030.4,22.7,-000.0,0019.46,0006.11,0004.74
2023-09-23 07:16:00,SystemResetWarning,0829.2,5.00,000.00,028.7,027.4,000.0,037.0,030.5,22.4,0000.8,0019.92,0006.17,0004.76
2023-09-23 07:17:00,SystemResetWarning,0829.3,5.00,000.00,028.8,027.5,000.0,037.0,030.5,22.2,0000.6,0019.57,0006.20,0004.77
2023-09-23 07:18:00,SystemResetWarning,0829.3,5.00,000.00,028.8,027.5,000.0,037.0,030.5,21.9,-000.4,0019.24,0006.25,0004.79
2023-09-23 07:19:00,SystemResetWarning,0829.3,4.99,000.00,028.8,027.5,000.0,037.0,030.5,22.0,-001.2,0019.00,0006.23,0004.79
2023-09-23 07:20:00,SystemResetWarning,0829.3,4.99,000.00,028.8,027.5,000.0,037.0,030.5,22.0,-000.9,0019.55,0006.22,0004.79
2023-09-23 07:21:00,SystemResetWarning,0829.3,5.00,000.00,028.8,027.5,000.0,037.1,030.5,21.9,-000.4,0019.83,0006.21,0004.77
2023-09-23 07:22:00,SystemResetWarning,0829.3,5.00,000.00,028.8,027.5,000.0,037.1,030.5,21.8,-000.4,0019.48,0006.14,0004.74
2023-09-23 07:23:00,SystemResetWarning,0829.3,5.00,000.00,028.8,027.5,000.0,037.1,030.5,21.8,-000.1,0017.69,0006.08,0004.70
2023-09-23 07:24:00,SystemResetWarning,0829.3,5.00,000.00,028.9,027.5,000.0,037.1,030.5,21.5,0000.1,0016.92,0005.99,0004.68
2023-09-23 07:25:00,SystemResetWarning,0829.3,5.01,000.00,028.9,027.5,000.0,037.1,030.5,21.4,0000.1,0017.94,0005.92,0004.65
2023-09-23 07:26:00,SystemResetWarning,0829.4,5.00,000.00,028.9,027.5,000.0,037.1,030.5,22.2,-000.1,0017.67,0005.88,0004.61
2023-09-23 07:27:00,SystemResetWarning,0829.3,5.00,000.00,028.9,027.6,000.0,037.2,030.6,22.1,-000.8,0016.89,0005.84,0004.58
2023-09-23 07:28:00,SystemResetWarning,0829.4,4.99,000.00,028.9,027.5,000.0,037.2,030.5,22.1,-000.2,0016.96,0005.85,0004.56
2023-09-23 07:29:00,SystemResetWarning,0829.4,5.00,000.00,028.9,027.5,000.0,037.2,030.5,22.1,0000.9,0016.94,0005.82,0004.54
2023-09-23 07:30:00,SystemResetWarning,0829.5,5.01,000.00,028.9,027.5,000.0,037.2,030.5,21.9,0001.9,0016.87,0005.75,0004.51
2023-09-23 07:31:00,SystemResetWarning,0829.6,5.00,000.00,028.9,027.5,000.0,037.2,030.5,21.8,0001.2,0017.87,0005.66,0004.49
2023-09-23 07:32:00,SystemResetWarning,0829.5,4.99,000.00,028.9,027.5,000.0,037.2,030.5,21.7,0000.3,0017.51,0005.59,0004.47
2023-09-23 07:33:00,SystemResetWarning,0829.6,4.99,000.00,028.9,027.5,000.0,037.2,030.5,21.7,0000.3,0017.04,0005.55,0004.45
2023-09-23 07:34:00,SystemResetWarning,0829.6,5.01,000.00,028.9,027.5,000.0,037.2,030.6,21.7,0000.1,0016.90,0005.52,0004.44
2023-09-23 07:35:00,SystemResetWarning,0829.6,5.00,000.00,028.9,027.5,000.0,037.2,030.6,22.0,0000.6,0016.98,0005.50,0004.43
2023-09-23 07:36:00,SystemResetWarning,0829.6,5.00,000.00,028.9,027.5,000.0,037.3,030.6,22.3,0000.7,0015.56,0005.48,0004.42
2023-09-23 07:37:00,SystemResetWarning,0829.7,4.99,000.00,028.9,027.5,000.0,037.3,030.6,22.6,0000.8,0014.83,0005.47,0004.42
2023-09-23 07:38:00,SystemResetWarning,0829.6,4.99,000.00,028.9,027.5,000.0,037.3,030.5,23.0,0000.4,0014.53,0005.47,0004.42
2023-09-23 07:39:00,SystemResetWarning,0829.6,4.99,000.00,028.9,027.5,000.0,037.3,030.5,23.4,0000.0,0014.39,0005.47,0004.44
2023-09-23 07:40:00,SystemResetWarning,0829.6,5.01,000.00,028.9,027.5,000.0,037.3,030.5,23.1,0000.0,0014.31,0005.44,0004.45
2023-09-23 07:41:00,SystemResetWarning,0829.6,5.01,000.00,028.9,027.5,000.0,037.3,030.4,23.1,0000.2,0013.96,0005.50,0004.48
2023-09-23 07:42:00,SystemResetWarning,0829.6,5.01,000.00,028.9,027.4,000.0,037.3,030.4,23.4,0000.5,0012.47,0005.62,0004.51
2023-09-23 07:43:00,SystemResetWarning,0829.7,4.99,000.00,028.9,027.4,000.0,037.3,030.4,23.6,0000.3,0012.78,0005.70,0004.55
2023-09-23 07:44:00,SystemResetWarning,0829.7,4.99,000.00,028.9,027.4,000.0,037.3,030.4,24.0,0000.8,0012.86,0005.80,0004.58
2023-09-23 07:45:00,SystemResetWarning,0829.7,4.99,000.00,028.8,027.4,000.0,037.3,030.4,24.3,0001.0,0013.32,0005.84,0004.60
2023-09-23 07:46:00,SystemResetWarning,0829.6,5.01,000.00,028.8,027.4,000.0,037.3,030.4,24.3,0001.2,0013.61,0005.85,0004.61
2023-09-23 07:47:00,SystemResetWarning,0829.6,4.99,000.00,028.8,027.4,000.0,037.3,030.4,24.4,0000.7,0013.01,0005.83,0004.62
2023-09-23 07:48:00,SystemResetWarning,0829.6,5.01,000.00,028.8,027.4,000.0,037.3,030.4,24.4,0000.0,0014.05,0005.81,0004.63
2023-09-23 07:49:00,SystemResetWarning,0829.6,5.01,000.00,028.8,027.4,000.0,037.3,030.4,24.6,-000.2,0014.61,0005.83,0004.62
2023-09-23 07:50:00,SystemResetWarning,0829.6,5.00,000.00,028.8,027.4,000.0,037.3,030.4,24.7,-000.1,0014.73,0005.79,0004.59
2023-09-23 07:51:00,SystemResetWarning,0829.7,5.00,000.00,028.8,027.4,000.0,037.3,030.4,24.7,0000.4,0014.78,0005.76,0004.56
2023-09-23 07:52:00,SystemResetWarning,0829.7,4.99,000.00,028.8,027.4,000.0,037.3,030.4,24.6,0000.7,0014.84,0005.69,0004.52
2023-09-23 07:53:00,SystemResetWarning,0829.6,5.00,000.00,028.8,027.4,000.0,037.3,030.4,24.4,0000.0,0014.83,0005.61,0004.48
2023-09-23 07:54:00,SystemResetWarning,0829.7,5.00,000.00,028.8,027.4,000.0,037.3,030.4,24.3,0000.2,0014.58,0005.49,0004.44
2023-09-23 07:55:00,SystemResetWarning,0829.7,5.00,000.00,028.8,027.4,000.0,037.3,030.4,24.1,0002.0,0014.23,0005.41,0004.40
2023-09-23 07:56:00,SystemResetWarning,0829.7,5.00,000.00,028.8,027.4,000.0,037.3,030.4,23.6,0001.0,0014.13,0005.34,0004.36
2023-09-23 07:57:00,SystemResetWarning,0829.7,5.00,000.00,028.8,027.4,000.0,037.3,030.4,21.6,0002.1,0013.85,0005.31,0004.33
2023-09-23 07:58:00,SystemResetWarning,0829.6,5.01,000.00,028.8,027.4,000.0,037.3,030.4,20.3,0002.2,0013.93,0005.31,0004.30
2023-09-23 07:59:00,SystemResetWarning,0829.6,5.01,000.00,028.8,027.4,000.0,037.3,030.4,17.7,0002.4,0013.81,0005.30,0004.28
